Location: Brownlee
(50.7397°N, 106.0159°W)
Time: 17:10:49
(UTC+00:00)

ISS - Visible Passes

Search period start: 30 November 2023 00:00
Search period end: 10 December 2023 00:00
Orbit: 416 x 417 km, 51.6° (Epoch: 30 November)

Date Brightness Start Highest point End Pass type
(mag) Time Alt. Az. Time Alt. Az. Time Alt. Az.
30 Nov -3.7 01:01:36 10° WNW 01:04:58 74° SSW 01:05:35 55° SE visible
01 Dec -3.8 00:13:13 10° WNW 00:16:36 90° NNE 00:19:21 15° ESE visible
01 Dec -1.7 01:50:08 10° W 01:52:16 26° WSW 01:52:16 26° WSW visible
02 Dec -2.7 01:01:35 10° W 01:04:48 43° SSW 01:06:06 28° SSE visible
03 Dec -3.2 00:13:04 10° WNW 00:16:24 59° SSW 00:19:42 10° ESE visible
03 Dec -1.1 01:50:34 10° WSW 01:52:38 15° SW 01:52:59 15° SSW visible
04 Dec -1.4 01:01:36 10° W 01:04:17 22° SW 01:06:58 10° SSE visible
05 Dec -1.9 00:12:47 10° W 00:15:50 32° SSW 00:18:51 10° SSE visible
06 Dec -0.4 01:02:29 10° WSW 01:03:21 11° SW 01:04:13 10° SSW visible
07 Dec -0.7 00:12:42 10° W 00:14:53 16° SW 00:17:04 10° S visible
